This is the latest recevied weather packets stored in our database for station/object N3TJJ-11. If no packets are shown the sender has not sent any weather packets the latest 10 day(s).
| Time | Temp. | Humidity | Pressure | Rain* | Wind** | Luminosity | Snow |
|---|---|---|---|---|---|---|---|
| 1777699431 | 8.89° C | 85% | 1011.1 hPa | 0 mm | - | - | - |
| 1777698837 | 8.89° C | 84% | 1011.2 hPa | 0 mm | - | - | - |
| 1777698711 | 8.89° C | 84% | 1011.1 hPa | 0 mm | - | - | - |
| 1777698233 | 9.44° C | 82% | 1011.3 hPa | 0 mm | - | - | - |
| 1777697991 | 9.44° C | 82% | 1011.3 hPa | 0 mm | - | - | - |
| 1777697632 | 9.44° C | 80% | 1011.2 hPa | 0 mm | - | - | - |
| 1777697271 | 10° C | 79% | 1011.1 hPa | 0 mm | - | - | - |
| 1777697033 | 10° C | 78% | 1011.1 hPa | 0 mm | - | - | - |
| 1777696551 | 10° C | 78% | 1011.1 hPa | 0 mm | - | - | - |
| 1777696432 | 10° C | 78% | 1011.1 hPa | 0 mm | - | - | - |
| 1777695831 | 10° C | 77% | 1011.1 hPa | 0 mm | - | - | - |
| 1777695234 | 10° C | 74% | 1011 hPa | 0 mm | - | - | - |
| 1777695111 | 10° C | 73% | 1010.9 hPa | 0 mm | - | - | - |
| 1777694633 | 10° C | 74% | 1010.8 hPa | 0 mm | - | - | - |
| 1777694391 | 10° C | 73% | 1010.7 hPa | 0 mm | - | - | - |
| 1777694033 | 10° C | 72% | 1010.5 hPa | 0 mm | - | - | - |
| 1777693671 | 10° C | 73% | 1010.5 hPa | 0 mm | - | - | - |
| 1777693433 | 10° C | 71% | 1010.6 hPa | 0 mm | - | - | - |
| 1777692951 | 10.56° C | 69% | 1010.6 hPa | 0 mm | - | - | - |
| 1777692834 | 10.56° C | 69% | 1010.7 hPa | 0 mm | - | - | - |
| 1777692231 | 10.56° C | 65% | 1010.6 hPa | 0 mm | - | - | - |
| 1777691635 | 11.11° C | 63% | 1010.5 hPa | 0 mm | - | - | - |
| 1777691511 | 11.11° C | 63% | 1010.5 hPa | 0 mm | - | - | - |
| 1777691034 | 11.11° C | 63% | 1010.2 hPa | 0 mm | - | - | - |
| 1777690791 | 10.56° C | 62% | 1010.2 hPa | 0 mm | - | - | - |
* Rain latest hour (hover to see other rain measurements)
** Current wind speed in m/s (hover to see current wind gust speed)